Погода в Ульяновском

Россия / Чеченская Республика     43°37′48″N   45°36′09″E
темп.,
°C
ветер,
м/с
пор.,
м/с
влажн.,
%
обл.,
%
осадки,
мм/ч
давл.,
гПа
погр.,
м
26 июля, пн
пн2600:00+25в39510 0.0 1016342
03:00+23в36505 0.0 1016163
06:00+23в385864 0.0 1017324
09:00+29в573841 0.3 10161205
12:00+32в68315 0.1 10152086
15:00+34в672890 0.1 10132663
18:00+32вюв7831100 0.0 10141424
21:00+26в6115350 0.1 1015567
27 июля, вт
вт2700:00+24вюв3866100 0.1 1016448
03:00+23вюв41171100 0.5 1014516
06:00+24всв4117081 0.6 1015674
09:00+26в71058100 0.9 10151237
12:00+27всв6942100 0.1 10151284
15:00+27св91139100 0.1 1014949
18:00+25св91242100 0.0 1015815
21:00+25св5846100 0.0 1017681
28 июля, ср
ср2800:00+23сз2349100 0.0 1017116
03:00+22сз2545100 0.0 1017327
06:00+22зсз2348100 0.0 1017141
09:00+21з2254100 0.0 1018172
12:00+20з4460100 0.0 1018257
15:00+21з335551 0.0 1018422
18:00+23зюз224844 0.0 1018566
21:00+21зюз235736 0.0 101853
29 июля, чт
чт2900:00+19зюз22655 0.0 101735
03:00+18сз11705 0.0 101612
06:00+19ю11685 0.0 101649
09:00+24вюв24473 0.0 1016685
12:00+29в57280 0.0 10141964
15:00+32вюв77210 0.0 10122444
18:00+30вюв67260 0.0 10121453
21:00+25вюв38390 0.0 1013250
30 июля, пт
пт3000:00+22вюв37580 0.0 1012211
03:00+21в25720 0.0 1012171
06:00+21юв11710 0.0 1012112
09:00+26вюв12491 0.0 1012616
12:00+32вюв56305 0.0 10101590
15:00+35вюв35210 0.0 10082525
18:00+33вюв78240 0.0 1009908
21:00+28вюв59334 0.0 1010287